Location: Ku?niki
(51.4449°N, 17.8974°E)
Time: 13:59:00
(UTC+00:00)

XW-2A - Pass Details

Date: 09 July 2022
Orbit: 395 x 405 km, 97.2° (Epoch: 15 August)

Event Time Altitude Azimuth Distance (km) Brightness Sun altitude
Exits shadow 20:40:40 - 210° (SSW) 2,222 ? -10.7°
Reaches altitude 10° 20:43:10 10° 236° (SW) 1,443 ? -10.9°
Maximum altitude 20:44:51 14° 269° (W) 1,240 ? -11.0°
Drops below altitude 10° 20:46:32 10° 303° (WNW) 1,453 ? -11.2°
Sets 20:49:17 0° 330° (NNW) 2,321 ? -11.4°
